星链-36989(STARLINK-36989)

导读

STARLINK-36989(NORAD编号68277)是SpaceX星链卫星互联网星座的成员卫星,属于星链大规模低轨卫星组网中的一颗,星链项目是SpaceX核心增长引擎,旨在通过近地轨道卫星群构建覆盖全球的高速互联网。 作为低轨通信卫星,它沿用星链成熟技术方案,配备相控阵天线与激光通信终端,可配合星座实现波束精准转向与高速星间数据传输,为全球地面网络覆盖盲区提供宽带通信服务,目前该卫星随星链整体组网稳定运营,支撑星座的全球通信覆盖能力。

基本信息
目录编号:
68277
目录名称:
STARLINK-36989
国际标识:
2026-055R
轨道中心:
EARTH
卫星名称:
星链-36989
卫星全名:
星链-36989(STARLINK-36989)
卫星状态:
在轨 (已飞行177 天)
发射日期:
2026-03-19 UTC
国别 :
美国 (US)
星等 :
--
该卫星已列入 空间交会检测服务 Space Conjunction Data Service (SCDS) ,当前飞行风险评估等级: 无高风险
轨道信息
数据来源 国际轨道数据
星历时间: 2026-09-12T09:05:50+0800
13小时前
查看轨道信息
半长轴: 6840.845km
偏心率: 0.0000804
轨道倾角: 53.160°
近地点辐角 72.138°
升交点赤经 169.334°
平近点角 287.971°
近地点: 462.157km
远地点: 463.259km
周期: 93.848分钟
每日圈数: 15.343985
详细信息
固有亮度:
5
最大亮度:
2.5
卫星平台:
Starlink V1.0
覆盖范围:
全球
运营商:
太空探索技术公司
运营商所在国:
美国
制造商(研发单位):
太空探索技术公司
制造商所在国:
美国
使用方式:
暂无
卫星简介
Starlink 计划是 SpaceX 推出的全球卫星互联网项目,通过发射低轨道卫星,为全球尤其是偏远地区提供高速、低延迟的互联网服务。自 2019 年起,Starlink 已部署数千颗卫星,旨在缩小全球数字鸿沟,推动互联网普及。该项目还为军事、航空等行业提供通信支持,带来广泛经济效益。
2D轨道图
3D轨道图
轨道高度分析图
轨道倾角分析图
轨道综合分析图
查看轨道综合分析图
交会数据列表
事件ID 空间交会对象 最接近时刻(TCA) 交会距离 交会风险概率(CRP) 交会风险指数(CRI) 操作
CDM_260914-234305-400906-827721
2026-09-14T
23:43:07+0000
0.328 km
远距离
3.29697E-4 高风险 0.85
CDM_260915-031605-230706-827721
2026-09-15T
03:16:54+0000
0.810 km
远距离
4.752835E-5 中风险 0.69
CDM_260914-133305-400906-827721
2026-09-14T
13:33:28+0000
1.140 km
极远距离
1.085316E-5 中风险 0.56
CDM_260914-115905-400906-827721
2026-09-14T
11:59:41+0000
1.630 km
极远距离
3.328151E-6 低风险 0.45
CDM_260915-014305-230706-827721
2026-09-15T
01:43:07+0000
1.848 km
极远距离
3.103851E-6 低风险 0.45
CDM_260913-110605-469206-827721
OBJECT L (54692)
2026-09-13T
11:06:54+0000
2.833 km
极远距离
1.240519E-6 低风险 0.37
CDM_260905-070105-200206-827721
2026-09-05T
07:01:49+0000
2.730 km
极远距离
1.078744E-6 低风险 0.36
CDM_260912-155106-324006-827721
2026-09-12T
15:51:01+0000
2.518 km
极远距离
1.030133E-6 低风险 0.35
CDM_260913-093706-237306-827721
2026-09-13T
09:37:40+0000
2.628 km
极远距离
1.017649E-6 低风险 0.35
CDM_260914-220905-400906-827721
2026-09-14T
22:09:20+0000
2.868 km
极远距离
9.767847E-7 极低风险 0.35
与全量物体交会距离演化趋势
与全量物体交会风险概率演化趋势